Location: Bishop's University Astronomical Observatory
(45.3661°N, 71.8475°W)
Time: 20:26:30
(UTC-04:00)

CZ-4C R/B - Visible Passes

Search period start: 30 April 2016 00:00
Search period end: 10 May 2016 00:00
Orbit: 746 x 1257 km, 63.4° (Epoch: 29 April)

Date Brightness Start Highest point End Pass type
(mag) Time Alt. Az. Time Alt. Az. Time Alt. Az.
06 May 4.5 04:23:38 10° SE 04:26:58 17° ESE 04:30:28 10° ENE visible
08 May 4.6 03:43:24 10° SE 03:45:49 13° ESE 03:48:19 10° ENE visible
09 May 3.7 04:13:58 10° S 04:18:38 31° ESE 04:23:44 10° NE visible
